This is the latest recevied weather packets stored in our database for station/object VE1UHF-4. If no packets are shown the sender has not sent any weather packets the latest 10 day(s).
| Time | Temp. | Humidity | Pressure | Rain* | Wind** | Luminosity | Snow |
|---|---|---|---|---|---|---|---|
| 1777475609 | 13.89° C | 75% | 1015.6 hPa | 0 mm | - | - | - |
| 1777474708 | 13.33° C | 75% | 1015.8 hPa | 0 mm | - | - | - |
| 1777472906 | 11.67° C | 76% | 1016 hPa | 0 mm | - | - | - |
| 1777471108 | 9.44° C | 75% | 1016.1 hPa | 0 mm | - | - | - |
| 1777469304 | 8.33° C | 73% | 1016.4 hPa | 0 mm | - | - | - |
| 1777468404 | 7.78° C | 73% | 1016.8 hPa | 0 mm | - | - | - |
| 1777467503 | 7.22° C | 73% | 1016.3 hPa | 0 mm | - | - | - |
| 1777465702 | 6.67° C | 72% | 1016.5 hPa | 0 mm | - | - | - |
| 1777464802 | 6.67° C | 71% | 1016.5 hPa | 0 mm | - | - | - |
| 1777463901 | 6.67° C | 71% | 1016.4 hPa | 0 mm | - | - | - |
| 1777462100 | 6.11° C | 71% | 1016.3 hPa | 0 mm | - | - | - |
| 1777461199 | 5.56° C | 71% | 1016.2 hPa | 0 mm | - | - | - |
| 1777459398 | 5.56° C | 69% | 1016.2 hPa | 0 mm | - | - | - |
| 1777458498 | 5.56° C | 69% | 1016 hPa | 0 mm | - | - | - |
| 1777457598 | 5.56° C | 68% | 1015.8 hPa | 0 mm | - | - | - |
| 1777454895 | 5.56° C | 67% | 1015.3 hPa | 0 mm | - | - | - |
| 1777453995 | 5.56° C | 67% | 1015.3 hPa | 0 mm | - | - | - |
| 1777452194 | 5.56° C | 67% | 1015.3 hPa | 0 mm | - | - | - |
| 1777451293 | 5.56° C | 66% | 1015.1 hPa | 0 mm | - | - | - |
| 1777450393 | 6.11° C | 66% | 1015.1 hPa | 0 mm | - | - | - |
| 1777449492 | 6.11° C | 65% | 1015.5 hPa | 0 mm | - | - | - |
| 1777448592 | 6.11° C | 66% | 1015.5 hPa | 0 mm | - | - | - |
| 1777446791 | 6.67° C | 64% | 1015.9 hPa | 0 mm | - | - | - |
| 1777445890 | 6.67° C | 64% | 1016 hPa | 0 mm | - | - | - |
| 1777444990 | 6.67° C | 64% | 1016 hPa | 0 mm | - | - | - |
* Rain since midnight (hover to see other rain measurements)
** Current wind speed in m/s (hover to see current wind gust speed)